Overview Statistics Trail Chart Weather Telemetry Raw packets
 

This is the latest recevied weather packets stored in our database for station/object R2AKT-13. If no packets are shown the sender has not sent any weather packets the latest 10 day(s).

<< 27 28 29 30 31 32 33 >>
Time Temp. Humidity Pressure Rain* Wind** Luminosity Snow
1788339256 20° C 61% 986.9 hPa - 2.24 m/s, 171° - -
1788338681 20° C 62% 987.1 hPa - 1.79 m/s, 184° - -
1788338161 19.44° C 63% 987.1 hPa - 1.79 m/s, 201° - -
1788337616 19.44° C 66% 987.2 hPa - 1.79 m/s, 211° - -
1788337046 18.89° C 67% 987 hPa - 2.68 m/s, 207° - -
1788336556 18.89° C 69% 987.1 hPa - 1.34 m/s, 195° - -
1788336051 18.33° C 69% 987.2 hPa - 0.89 m/s, 224° - -
1788335541 18.33° C 70% 987.3 hPa - 0.89 m/s, 238° - -
1788334941 18.33° C 71% 987.3 hPa - 0.89 m/s, 270° - -
1788334436 18.33° C 72% 987.4 hPa - 0.89 m/s, 270° - -
1788333836 18.33° C 72% 987.4 hPa - 0.89 m/s, 210° - -
1788333356 18.33° C 74% 987.4 hPa - 0.89 m/s, 266° - -
1788332876 18.33° C 72% 987.2 hPa - 0.89 m/s, 256° - -
1788332396 17.78° C 73% 987.1 hPa - 0.89 m/s, 236° - -
1788331845 17.78° C 73% 987.2 hPa - 1.34 m/s, 217° - -
1788331351 18.33° C 73% 987.1 hPa - 0.45 m/s, 208° - -
1788330801 18.33° C 72% 987.1 hPa - 1.34 m/s, 193° - -
1788330225 18.33° C 74% 987.1 hPa - 0.45 m/s, 129° - -
1788329625 17.78° C 75% 987.1 hPa - 0.45 m/s, 245° - -
1788329086 17.78° C 76% 987 hPa - 0.89 m/s, 238° - -
1788328551 17.78° C 76% 987 hPa - 1.34 m/s, 216° - -
1788328045 17.22° C 77% 987 hPa - 1.34 m/s, 208° - -
1788327551 17.78° C 77% 986.9 hPa - 1.79 m/s, 197° - -
1788326965 17.78° C 76% 987 hPa - 0 m/s - -
1788326431 17.22° C 77% 987 hPa - 0.89 m/s, 177° - -

* Rain since midnight (hover to see other rain measurements)
** Current wind speed in m/s (hover to see current wind gust speed)